Weather History for Kivalina, AK

Change the Weather History Date:

Saturday, January 12, 2013

  Actual Average Record
Temperature  
Mean Temperature 22 °F -  
Max Temperature 25 °F - - ()
Min Temperature 19 °F - - ()
Degree Days  
Heating Degree Days 43    
Moisture  
Dew Point 19 °F    
Average Humidity 88    
Maximum Humidity 96    
Minimum Humidity 80    
Precipitation  
Precipitation 0.01 in - - ()
Sea Level Pressure  
Sea Level Pressure 29.68 in    
Wind  
Wind Speed 17 mph (East)    
Max Wind Speed 34 mph    
Max Gust Speed 43 mph    
Visibility 5 miles    
Events Fog , Snow    
T = Trace of Precipitation, MM = Missing Value Source: NWS Daily Summary

Daily Weather History Graph

Daily Weather History Graph

Search for Another Location

Airport:

Trip Planner

Search our weather history database for the weather conditions in past years. The results will help you decide how hot, cold, wet, or windy it might be!

Date:

Astronomy

Jan. 12, 2013 Rise Set
Actual Time 12:34 PM AKST 3:39 PM AKST
Civil Twilight 10:53 AM AKST 5:20 PM AKST
Nautical Twilight 9:34 AM AKST 6:39 PM AKST
Astronomical Twilight 8:26 AM AKST 7:47 PM AKST
Moon 11:31 AM AKST (1/12) 7:03 PM AKST (1/12)
Length of Visible Light 6h 26m
Length of Day
3h 04m
New Moon, 2% of the Moon is Illuminated
Jan 12
New Moon
Jan 18
First Quarter
Jan 26
Full
Feb 3
Last Quarter
Feb 9
New

Hourly Weather History & Observations

Time (AKST) Temp. Windchill Dew Point Humidity Pressure Visibility Wind Dir Wind Speed Gust Speed Precip Events Conditions
12:45 AM 23.0 °F 11.1 °F 21.2 °F 93% 29.75 in 2.0 mi SSE 12.7 mph - 0.00 in Snow Light Snow
12:53 AM 23.0 °F 11.7 °F 21.0 °F 92% 29.75 in 3.0 mi SSE 11.5 mph - 0.01 in Snow Light Snow
1:14 AM 23.0 °F 10.1 °F 21.2 °F 93% 29.76 in 2.0 mi South 15.0 mph - 0.00 in Snow Light Snow
1:31 AM 23.0 °F 10.6 °F 21.2 °F 93% 29.76 in 4.0 mi South 13.8 mph - 0.00 in Snow Light Snow
1:53 AM 23.0 °F 10.1 °F 21.0 °F 92% 29.77 in 6.0 mi South 15.0 mph - 0.00 in Snow Light Snow
3:53 AM 21.0 °F 5.7 °F 17.1 °F 85% 29.80 in 10.0 mi South 19.6 mph - 0.00 in   Overcast
4:53 AM 21.0 °F 7.1 °F 18.0 °F 88% 29.81 in 10.0 mi South 16.1 mph - N/A   Overcast
5:09 AM 21.2 °F 7.8 °F 17.6 °F 86% 29.81 in 10.0 mi South 15.0 mph - N/A   Overcast
5:30 AM 21.2 °F 8.9 °F 17.6 °F 86% 29.81 in 10.0 mi South 12.7 mph - N/A   Overcast
5:53 AM 21.0 °F 9.3 °F 18.0 °F 88% 29.81 in 10.0 mi South 11.5 mph - N/A   Overcast
6:31 AM 21.2 °F 10.9 °F 17.6 °F 86% 29.81 in 10.0 mi South 9.2 mph - N/A   Overcast
6:53 AM 21.0 °F 11.4 °F 18.0 °F 88% 29.82 in 10.0 mi South 8.1 mph - N/A   Overcast
7:53 AM 19.9 °F - 17.1 °F 89% 29.82 in 10.0 mi Calm Calm - N/A   Overcast
8:53 AM 19.9 °F 13.4 °F 18.0 °F 92% 29.82 in 10.0 mi NNE 4.6 mph - N/A   Overcast
9:00 AM 19.4 °F 11.5 °F 17.6 °F 93% 29.81 in 10.0 mi NNE 5.8 mph - N/A   Overcast
9:22 AM 21.2 °F 13.6 °F 17.6 °F 86% 29.81 in 10.0 mi NNE 5.8 mph - N/A   Overcast
9:53 AM 25.0 °F 13.6 °F 21.9 °F 88% 29.81 in 6.0 mi SE 12.7 mph - 0.00 in   Overcast
10:53 AM 25.0 °F 13.6 °F 21.9 °F 88% 29.80 in 3.0 mi SE 12.7 mph - 0.00 in Snow Light Snow
11:02 AM 24.8 °F 12.4 °F 21.2 °F 86% 29.80 in 2.0 mi ESE 15.0 mph - 0.00 in Snow Light Snow
11:12 AM 24.8 °F 12.4 °F 21.2 °F 86% 29.80 in 5.0 mi SE 15.0 mph - 0.00 in Snow Light Snow
11:35 AM 23.0 °F 11.1 °F 21.2 °F 93% 29.80 in 6.0 mi East 12.7 mph - 0.00 in Snow Light Snow
11:53 AM 23.0 °F 10.6 °F 21.0 °F 92% 29.80 in 10.0 mi East 13.8 mph - 0.00 in   Overcast
12:53 PM 21.9 °F 9.8 °F 19.0 °F 89% 29.80 in 9.0 mi East 12.7 mph - N/A   Overcast
1:53 PM 21.9 °F 8.7 °F 19.0 °F 89% 29.78 in 9.0 mi East 15.0 mph - N/A   Overcast
2:53 PM 21.0 °F 4.6 °F 17.1 °F 85% 29.74 in 4.0 mi ENE 23.0 mph - 0.00 in   Partly Cloudy
3:09 PM 21.2 °F 4.5 °F 17.6 °F 86% 29.73 in 2.5 mi ENE 24.2 mph - 0.00 in   Mostly Cloudy
3:16 PM 21.2 °F 4.9 °F 17.6 °F 86% 29.72 in 4.0 mi ENE 23.0 mph - 0.00 in   Mostly Cloudy
3:51 PM 21.2 °F 3.9 °F 17.6 °F 86% 29.69 in 2.5 mi ENE 26.5 mph - 0.00 in   Overcast
3:53 PM 21.9 °F 5.5 °F 18.0 °F 85% 29.69 in 2.5 mi ENE 24.2 mph - 0.00 in   Overcast
4:17 PM 21.2 °F 4.5 °F 17.6 °F 86% 29.67 in 1.8 mi ENE 24.2 mph - 0.00 in   Overcast
4:31 PM 23.0 °F 6.9 °F 19.4 °F 86% 29.66 in 2.5 mi ENE 24.2 mph 32.2 mph 0.00 in   Overcast
4:38 PM 23.0 °F 6.9 °F 19.4 °F 86% 29.66 in 4.0 mi ENE 24.2 mph - 0.00 in   Overcast
4:53 PM 23.0 °F 6.0 °F 19.0 °F 85% 29.64 in 2.5 mi ENE 27.6 mph - 0.00 in   Overcast
5:05 PM 23.0 °F 5.4 °F 19.4 °F 86% 29.64 in 1.0 mi East 29.9 mph 38.0 mph 0.00 in   Overcast
5:28 PM 23.0 °F 6.3 °F 19.4 °F 86% 29.62 in 3.0 mi ENE 26.5 mph - 0.00 in Snow Blowing Snow
5:40 PM 23.0 °F 6.0 °F 19.4 °F 86% 29.61 in 1.8 mi ENE 27.6 mph - 0.00 in Snow Blowing Snow
5:53 PM 23.0 °F 6.3 °F 19.0 °F 85% 29.60 in 1.8 mi ENE 26.5 mph - 0.00 in Snow Blowing Snow
6:00 PM 24.8 °F 7.6 °F 19.4 °F 80% 29.58 in 2.0 mi ENE 31.1 mph 35.7 mph N/A Snow Blowing Snow
6:12 PM 23.0 °F 5.1 °F 19.4 °F 86% 29.57 in 1.8 mi ENE 31.1 mph - N/A Snow Blowing Snow
6:24 PM 23.0 °F 5.4 °F 19.4 °F 86% 29.57 in 2.0 mi ENE 29.9 mph - N/A Snow Blowing Snow
6:53 PM 23.0 °F 5.7 °F 19.0 °F 85% 29.55 in 2.0 mi ENE 28.8 mph - 0.00 in Snow Light Snow
7:02 PM 23.0 °F 5.7 °F 19.4 °F 86% 29.55 in 1.8 mi ENE 28.8 mph - 0.00 in Snow Light Snow
7:37 PM 23.0 °F 4.6 °F 19.4 °F 86% 29.53 in 1.0 mi ENE 33.4 mph 39.1 mph 0.00 in Snow Light Snow
7:53 PM 21.9 °F 3.7 °F 19.0 °F 89% 29.52 in 1.2 mi ENE 31.1 mph 38.0 mph 0.00 in Snow Light Snow
8:53 PM 21.9 °F 3.1 °F 19.0 °F 89% 29.46 in 1.0 mi ENE 33.4 mph 40.3 mph 0.00 in Snow Light Snow
9:53 PM 23.0 °F 4.9 °F 21.0 °F 92% 29.41 in 1.2 mi ENE 32.2 mph 38.0 mph 0.00 in Snow Light Snow
10:42 PM 24.8 °F 7.3 °F 21.2 °F 86% 29.37 in 1.0 mi ENE 32.2 mph 40.3 mph 0.00 in Snow Light Snow
10:53 PM 24.1 °F 6.1 °F 21.9 °F 91% 29.36 in 1.0 mi ENE 33.4 mph 40.3 mph 0.00 in Snow Light Snow
11:00 PM 24.8 °F 6.8 °F 21.2 °F 86% 29.35 in 0.8 mi ENE 34.5 mph 40.3 mph 0.00 in Snow Light Snow
11:53 PM 24.1 °F 6.1 °F 23.0 °F 96% 29.31 in 0.5 mi East 33.4 mph 42.6 mph 0.00 in Fog , Snow Light Snow